Theta_e
349 341 335 340 313 308 302 306 308 307 314 320 324 320 315 318 312 304 335 345 348 351 354 358 360 357 358 356 355 353 353 351 350 346 345 349 353 353 354 356 356 356 356 357 356 357 356 357 357
345 339 339 326 308 300 302 308 305 313 321 324 323 322 319 319 328 328 334 346 350 352 353 354 358 357 358 355 351 351 354 350 351 347 343 346 349 351 351 352 352 352 354 355 356 356 355 354 355
337 338 326 314 308 303 299 304 305 308 318 316 315 318 319 320 328 328 333 346 350 350 351 353 359 360 359 354 351 350 353 353 351 345 343 345 344 349 349 349 348 349 350 352 353 354 355 354 354
325 330 319 306 301 304 302 300 307 306 310 313 317 313 322 322 328 330 341 345 345 347 349 357 359 359 359 355 352 351 352 352 348 344 343 343 341 346 347 346 346 344 346 347 349 352 352 354 353
325 319 305 300 302 302 299 303 303 302 306 310 312 311 314 320 321 334 345 346 345 346 350 354 357 357 356 354 353 351 352 352 348 344 342 342 342 339 340 340 341 341 342 343 344 347 352 351 352
317 313 301 296 299 301 298 302 303 301 302 303 308 307 309 315 320 323 346 345 346 345 350 349 358 358 357 354 353 350 348 352 349 345 342 341 341 340 337 336 336 336 337 337 337 343 346 352 351
315 307 302 297 297 299 302 302 301 301 300 302 305 303 307 315 319 322 338 338 330 336 345 349 354 354 357 354 355 353 352 352 349 346 345 343 341 340 340 337 335 335 335 334 334 340 344 347 349
314 310 301 298 299 298 303 305 305 302 300 306 307 302 304 312 319 325 324 320 318 318 328 329 347 350 349 348 353 354 352 352 350 348 348 347 346 345 343 343 340 339 337 336 335 335 341 342 344
315 300 297 299 300 300 305 303 306 306 304 305 307 307 311 315 318 317 315 314 314 316 317 321 328 335 346 348 351 350 353 353 352 349 349 347 344 340 340 342 344 343 341 338 337 336 336 341 342
308 300 300 305 304 301 306 304 304 303 301 301 303 307 309 310 311 311 309 307 307 305 314 316 335 343 341 345 342 342 344 342 342 342 340 340 340 341 341 341 344 345 343 340 339 339 338 335 329
307 302 305 308 306 307 305 304 307 302 299 300 302 304 306 305 306 306 305 303 301 300 303 309 316 334 335 336 337 337 334 337 338 336 336 336 337 338 338 337 336 331 334 331 329 327 329 327 323
303 307 308 309 308 306 303 305 301 302 301 304 303 304 303 302 302 303 301 300 299 299 299 301 303 309 314 317 323 329 329 328 329 333 329 326 329 330 332 333 335 337 333 328 325 320 321 322 322
303 304 307 306 306 305 305 302 300 299 302 303 304 303 300 300 300 299 299 298 298 298 299 300 300 299 301 303 302 302 307 310 317 317 312 315 316 316 323 324 329 331 335 334 333 331 328 322 315
305 305 304 305 304 304 302 300 301 300 302 302 301 299 298 299 299 297 297 297 297 297 299 300 301 299 300 299 300 300 301 301 302 303 303 305 305 304 306 307 310 314 320 331 330 329 329 328 324
304 299 300 301 302 302 303 298 298 300 301 300 298 296 297 297 298 297 297 297 297 297 299 300 301 300 299 299 300 299 301 301 300 300 301 301 302 301 302 303 304 304 308 318 322 321 324 324 326
297 296 291 297 301 302 300 293 298 300 299 298 297 295 297 296 297 296 298 298 297 298 298 299 304 301 299 299 299 299 299 299 299 299 299 301 302 301 300 300 300 302 303 308 311 316 317 316 316
293 287 290 294 302 301 297 293 299 299 299 297 294 294 295 294 293 295 297 297 298 297 297 297 298 299 299 298 299 298 298 298 298 298 298 299 302 302 299 299 299 300 301 301 304 310 312 313 313
288 288 291 291 298 299 295 294 297 298 297 297 294 293 294 294 295 296 297 297 297 296 296 296 297 298 297 297 297 297 297 298 298 297 298 300 300 301 298 298 298 299 299 299 300 300 304 309 310
294 291 291 293 300 297 295 295 296 298 296 295 293 293 293 294 296 296 297 297 296 295 295 296 297 296 297 296 295 294 295 295 296 298 299 299 300 300 298 298 298 298 297 297 298 299 300 302 305
295 292 291 296 300 296 295 295 297 297 297 298 296 294 294 293 293 294 296 296 297 296 295 295 297 297 296 296 295 295 294 295 296 298 298 299 299 299 299 297 297 297 296 297 296 296 297 299 303
295 292 291 292 296 295 293 292 293 296 296 297 296 296 295 294 294 293 294 295 296 296 295 296 297 297 297 296 296 295 295 295 295 295 296 297 298 298 297 296 296 295 295 295 295 296 295 296 296
290 298 297 296 291 286 292 282 289 291 292 294 295 294 294 293 294 295 294 294 294 296 296 297 297 298 299 296 295 293 292 292 293 293 295 295 296 296 297 297 296 295 295 294 294 298 295 294 294
294 299 295 294 288 286 286 284 287 290 289 292 294 294 294 293 294 294 294 295 295 295 296 297 298 299 298 296 294 294 292 292 293 293 292 292 294 295 296 296 295 295 295 294 294 294 294 294 293
299 294 292 290 287 281 285 285 284 288 291 291 292 294 295 294 294 295 295 295 295 295 296 297 298 298 297 296 295 293 291 290 290 290 290 292 292 293 294 295 294 294 294 294 295 295 294 295 294
294 287 280 280 281 281 287 284 285 290 290 292 294 294 294 294 294 294 293 293 294 296 297 298 297 296 296 295 293 292 291 289 289 290 290 290 291 292 293 293 293 293 294 294 294 294 293 293 294
291 288 282 279 279 282 286 283 287 290 292 291 294 294 294 294 293 293 293 293 294 296 296 296 296 295 294 293 292 290 290 290 290 291 291 291 291 292 293 294 294 294 295 295 294 294 294 294 295
289 285 288 283 280 278 281 286 290 289 290 291 291 292 293 294 293 293 293 294 294 295 295 295 295 293 293 291 290 289 290 290 290 291 291 291 292 294 295 294 293 293 293 293 293 294 293 293 293
288 291 284 282 276 276 280 280 283 286 286 288 289 289 291 293 292 293 293 294 294 293 294 293 293 291 290 290 289 291 290 290 291 290 290 291 291 292 292 293 293 293 294 294 293 293 293 292 293
286 284 284 284 281 277 275 279 286 286 288 288 288 291 292 292 292 292 292 293 293 293 292 291 290 289 289 290 290 289 290 290 290 290 291 291 291 291 292 293 293 293 293 293 292 293 293 292 292
288 285 284 280 279 278 276 280 288 286 290 291 290 291 291 292 294 294 293 292 291 291 291 289 288 288 289 290 289 289 289 290 289 289 289 290 291 292 292 292 292 292 293 293 292 292 293 292 292
Wind_Speed
8 6 0 3 7 6 2 2 2 7 6 7 8 12 7 5 3 5 1 10 12 9 7 5 10 8 10 10 10 8 8 9 10 9 8 8 9 9 10 11 11 12 11 11 10 10 8 9 9
4 4 3 3 7 5 3 4 8 7 9 8 10 5 6 6 3 7 4 5 12 10 7 6 10 8 9 11 8 7 8 8 9 8 8 8 7 8 10 10 10 9 10 10 10 9 7 5 7
3 1 4 5 4 3 2 3 7 4 3 1 5 4 3 2 2 6 5 11 11 9 8 8 11 9 10 11 9 7 8 7 7 7 7 8 7 6 8 7 7 7 7 8 9 8 7 5 4
2 5 5 6 5 1 3 2 1 1 7 8 4 6 3 2 3 6 12 12 10 8 7 12 14 13 13 12 10 7 8 7 6 6 6 6 6 5 5 5 5 5 5 6 6 7 4 5 4
4 3 5 3 2 3 4 5 7 6 5 6 1 2 2 7 9 8 12 12 13 8 7 7 11 9 9 8 8 7 8 8 6 5 4 4 4 4 3 3 3 3 3 4 4 4 5 2 5
4 3 5 3 2 1 3 2 5 5 5 4 6 4 2 6 5 5 10 11 6 4 4 3 7 6 7 7 5 5 2 7 6 5 3 2 2 2 2 2 2 2 1 1 2 3 2 5 4
6 5 3 6 4 2 1 5 6 5 2 4 2 4 3 7 7 7 7 10 7 5 7 5 6 7 9 7 7 3 4 5 4 3 3 1 1 2 2 3 4 4 3 2 1 1 2 3 4
5 5 4 1 3 3 2 3 6 4 1 2 1 4 1 5 9 13 11 9 10 9 6 3 3 3 3 4 5 4 3 3 2 2 2 3 3 4 5 6 6 6 4 4 4 3 4 4 5
3 6 2 3 5 3 1 3 3 2 6 3 2 4 2 4 5 10 7 8 8 10 9 7 6 4 5 5 7 9 11 11 10 9 9 5 2 4 6 7 8 9 7 6 7 6 6 7 7
5 4 7 2 2 4 2 4 7 5 3 4 3 4 7 7 9 11 8 8 10 9 10 7 9 9 8 8 6 6 6 5 5 5 6 4 5 5 3 4 7 8 10 9 8 8 8 7 3
2 5 5 3 4 4 5 3 2 9 2 5 7 4 5 7 8 9 6 7 6 5 9 8 7 7 8 6 5 4 3 3 5 8 6 6 5 5 5 3 3 3 7 3 4 5 4 5 3
5 1 3 4 2 3 5 6 4 1 2 8 6 6 5 9 7 8 8 7 7 9 7 7 8 8 7 5 4 4 4 4 4 4 6 5 4 4 5 4 5 4 3 3 3 3 4 5 5
3 4 4 3 5 5 6 2 5 4 4 6 7 8 8 8 8 5 7 7 8 10 7 8 8 8 6 7 4 5 5 5 4 5 6 5 5 4 4 5 4 5 5 4 3 3 3 4 5
3 3 3 3 3 2 4 2 1 6 5 6 8 7 6 8 7 5 6 6 9 7 7 6 8 7 8 7 7 5 5 4 5 5 5 7 4 4 5 4 4 4 4 4 5 4 3 4 3
6 4 4 2 4 2 5 3 7 6 8 8 8 7 7 7 7 7 6 7 8 5 5 7 7 7 8 7 5 5 4 5 5 4 6 7 5 5 4 4 5 5 5 6 4 5 4 4 4
4 5 0 4 7 2 5 10 3 9 11 10 9 8 8 6 8 7 7 7 6 7 8 6 6 7 7 6 4 4 4 4 4 4 5 7 7 6 5 4 4 4 4 4 4 4 4 4 4
5 3 5 7 9 5 6 7 3 8 10 10 9 9 8 6 4 6 7 8 7 7 7 6 6 6 5 5 4 4 5 4 3 4 4 7 6 6 4 4 5 6 4 4 3 3 2 3 5
5 4 4 4 6 6 5 12 2 7 7 11 9 8 8 9 9 8 9 8 8 7 6 7 4 5 4 3 2 2 3 3 3 4 3 6 4 5 4 4 5 4 4 5 3 3 3 3 4
3 2 4 5 1 5 6 7 8 11 6 9 9 10 8 10 8 7 8 8 8 6 5 5 6 3 2 2 1 1 1 3 2 4 6 7 6 7 7 5 6 5 5 6 6 4 3 3 2
2 3 4 3 2 4 5 11 10 9 16 18 15 12 10 7 7 7 8 7 7 7 7 5 4 4 2 2 2 2 2 3 3 3 5 5 6 7 5 5 6 7 5 7 6 3 3 3 2
0 3 2 4 4 4 4 9 5 1 1 6 5 10 8 13 12 8 8 9 6 7 7 6 5 4 2 3 1 1 1 2 3 3 3 4 6 7 6 7 6 6 4 5 6 5 5 6 4
2 3 1 1 3 4 4 7 7 4 3 6 8 9 10 10 8 7 8 7 9 7 6 6 6 5 4 3 2 1 1 2 3 2 3 5 6 6 6 6 6 6 5 6 5 6 4 3 5
5 2 1 1 2 3 3 3 9 2 3 7 9 8 8 9 11 10 10 9 8 7 7 7 5 4 3 1 1 1 2 3 3 3 5 5 5 6 7 7 7 6 5 5 6 7 6 4 4
3 3 7 5 3 2 5 6 7 3 5 3 5 7 7 8 9 9 7 6 6 5 6 6 6 4 3 2 3 3 4 5 4 4 4 5 4 5 6 6 6 6 6 6 6 7 7 7 6
5 6 4 4 2 7 1 4 8 5 3 4 10 9 8 9 9 7 9 8 6 8 8 6 5 5 3 2 4 3 4 3 4 5 4 6 4 3 6 6 6 5 6 6 6 6 6 7 7
3 6 6 5 3 4 4 5 4 3 6 6 2 7 7 7 7 9 9 8 8 8 7 6 4 5 3 3 4 3 4 2 4 4 4 5 4 5 7 7 7 7 9 8 7 6 5 7 7
1 2 3 2 2 2 4 5 7 2 6 8 6 5 8 7 8 8 8 8 7 7 7 5 2 2 2 3 3 4 4 5 5 7 6 5 6 6 8 7 6 7 7 8 9 8 9 7 7
2 2 3 3 2 4 5 4 4 5 1 2 3 4 5 6 7 8 7 7 4 2 1 3 3 1 2 4 3 3 5 6 6 5 6 7 7 6 6 7 8 8 10 11 12 11 12 10 9
2 2 2 3 5 5 2 6 4 2 3 3 4 7 7 8 4 5 4 2 1 3 4 3 4 4 5 4 3 5 6 6 5 5 7 7 6 7 10 13 14 13 12 11 11 13 13 12 12
3 4 5 5 4 1 5 8 3 2 8 7 5 5 5 1 2 4 3 2 3 3 4 5 4 4 3 5 4 6 6 6 7 6 6 7 10 11 12 13 14 14 14 14 12 14 13 14 14
Wind_Direction
312 316 32 39 54 66 355 57 258 44 44 346 66 88 123 93 57 161 108 138 131 141 149 150 130 137 128 106 96 88 91 81 80 70 69 71 58 78 61 71 67 63 60 62 61 56 62 88 91
318 328 39 77 80 67 313 298 72 109 132 133 76 61 44 56 64 103 101 161 140 144 146 144 141 160 146 111 107 99 81 81 83 70 76 75 66 65 77 61 61 61 57 57 56 53 45 108 94
299 348 80 85 109 124 141 338 106 80 167 103 103 72 65 337 336 147 141 155 141 147 156 162 155 144 134 130 133 124 106 99 89 84 87 83 73 73 76 68 64 54 54 47 44 36 37 41 62
32 7 21 82 115 37 121 339 12 35 32 30 106 67 66 258 285 127 140 149 136 158 167 174 167 165 153 147 146 141 125 111 101 95 97 95 88 90 79 68 61 54 51 43 31 22 33 28 347
39 63 62 65 35 84 57 90 51 71 97 9 46 113 53 321 352 100 132 140 152 167 176 170 169 154 141 148 151 150 147 131 117 108 97 96 98 90 85 83 79 72 57 41 21 11 13 15 343
45 98 75 137 200 53 56 77 79 66 24 353 50 72 301 310 10 21 153 165 105 106 73 119 160 159 164 160 161 170 148 140 129 131 131 122 122 135 120 117 125 107 85 46 3 352 354 7 339
107 87 176 149 177 45 199 165 99 121 87 4 133 97 280 326 337 4 84 96 95 114 128 156 162 185 185 174 179 184 123 142 143 155 173 190 262 274 245 220 196 181 171 169 250 289 307 328 335
104 86 91 174 196 200 314 85 119 88 107 311 74 149 173 295 351 80 81 81 56 49 58 18 195 185 208 178 162 155 127 169 199 237 255 240 264 285 279 263 250 222 210 206 209 228 251 277 295
90 65 99 176 169 187 257 114 36 43 93 62 44 131 41 350 77 73 78 61 54 49 42 36 45 34 40 65 49 36 28 36 33 19 6 331 352 295 270 265 270 273 258 241 223 225 239 249 261
82 98 185 230 145 176 119 116 143 106 92 37 55 75 57 43 64 78 63 74 70 49 41 35 54 69 62 65 52 48 45 44 37 26 21 19 27 4 26 303 275 276 276 273 270 255 241 251 256
136 164 173 184 151 134 142 111 72 128 173 191 175 132 82 72 68 85 72 72 74 76 59 34 50 57 67 63 56 48 39 42 45 36 26 37 36 22 21 14 13 339 293 306 339 324 304 279 249
98 120 170 172 131 132 168 125 76 71 175 146 150 135 105 92 92 107 101 92 79 64 56 48 49 57 50 48 46 48 50 41 35 32 20 32 30 27 27 20 356 350 356 1 15 332 308 289 275
126 177 125 126 95 83 92 69 150 146 166 138 99 104 113 105 101 88 107 91 79 69 58 51 60 59 57 58 47 42 43 45 43 35 30 31 29 22 20 15 6 357 349 349 333 316 315 327 326
163 133 138 145 124 99 119 168 17 211 170 137 115 119 126 117 121 102 89 92 85 91 73 66 61 64 60 53 52 47 50 38 48 38 24 33 38 33 28 7 357 1 349 340 338 328 326 316 306
120 92 354 218 189 186 121 276 229 171 162 164 151 149 128 127 114 129 130 122 123 96 100 81 79 68 68 63 53 54 40 42 37 23 18 20 24 15 28 12 357 345 344 341 338 332 332 330 327
95 60 16 268 153 230 115 264 258 170 159 183 179 183 154 160 139 136 140 127 125 109 94 80 83 75 66 62 53 41 40 38 22 14 4 4 358 6 2 360 338 327 345 341 337 325 322 318 326
360 213 214 309 192 143 169 261 254 168 171 186 187 191 176 167 164 147 143 141 147 136 129 105 96 92 90 61 53 38 23 31 6 360 355 352 353 353 5 338 315 327 339 333 324 307 296 299 307
205 218 230 235 218 190 198 257 194 207 191 198 183 196 184 177 190 173 151 148 145 144 136 130 127 122 98 65 35 21 12 2 356 342 327 339 336 327 322 317 311 315 320 310 315 296 296 256 271
182 210 240 263 261 157 229 272 245 212 209 206 196 197 191 188 200 177 166 164 132 131 147 157 143 155 115 49 24 7 318 295 318 334 334 335 328 331 336 331 331 331 326 298 301 291 274 284 277
173 237 279 271 275 175 262 258 249 195 214 205 191 190 193 177 180 198 180 176 176 170 180 181 181 169 149 149 190 176 218 270 268 304 314 314 317 319 313 313 303 305 311 311 305 283 295 272 251
77 204 221 226 345 303 333 293 297 329 236 171 167 189 189 180 181 200 196 197 185 185 192 193 195 172 154 170 140 357 336 356 341 325 310 314 321 311 308 306 304 303 299 283 285 279 261 275 290
247 187 146 45 46 256 53 283 294 342 285 198 187 182 193 185 193 192 199 202 204 211 197 187 183 179 174 165 78 69 219 284 254 258 281 305 322 322 320 315 311 302 296 296 282 282 249 208 248
227 123 127 116 94 8 312 114 269 40 284 227 216 210 202 192 185 195 207 208 213 184 182 188 192 193 219 256 152 261 285 242 276 301 321 319 314 314 303 299 297 292 293 285 280 291 287 243 227
147 75 35 51 80 0 249 152 284 218 237 221 233 227 200 186 189 212 206 189 184 185 184 196 196 233 273 324 299 285 275 292 315 305 305 297 285 285 289 292 292 292 292 289 292 293 278 270 259
73 58 327 346 2 226 85 125 245 305 332 234 208 210 203 191 184 186 189 187 183 187 197 201 209 255 279 308 311 295 281 278 271 277 276 294 287 276 280 281 279 276 269 274 275 273 275 277 274
170 147 162 238 219 275 319 246 266 264 315 351 253 185 183 194 193 201 190 187 196 200 208 220 225 254 334 324 312 321 321 300 286 271 275 269 263 271 277 274 273 280 287 285 278 275 267 271 275
178 174 181 107 13 50 260 287 322 332 21 19 58 138 192 206 209 207 205 206 203 209 221 220 236 348 336 340 342 339 331 313 286 285 278 275 283 289 290 297 291 290 288 288 288 285 278 261 265
150 186 58 8 246 263 289 283 235 341 72 48 63 167 209 221 215 218 218 212 220 249 9 70 81 48 5 6 359 330 296 285 289 300 295 288 283 284 297 288 277 272 274 275 274 276 269 261 270
45 298 76 122 146 184 284 276 252 237 192 150 228 234 233 238 287 305 327 353 68 69 72 70 42 30 14 353 307 293 292 298 298 293 289 288 293 284 287 287 284 282 282 271 270 274 269 262 267
185 194 145 125 239 166 147 273 266 165 151 171 213 43 26 0 256 293 261 149 79 72 42 36 31 17 327 279 300 306 307 306 296 287 285 283 285 288 289 284 279 279 278 273 270 275 271 272 270